Address 0xd1479a710f0d17eaed467b3adb780ce40b388a9d 7

 
Txn Hash Method
Block
From
To
Value [Txn Fee]
0xfbff113900a358ec22b72dae2fb6fbddf05553761e2eaaa0458105765d054508From Vesting241489452022-09-11 21:28:39137 days 23 hrs ago0xd1479a710f0d17eaed467b3adb780ce40b388a9dOUT Radiant: Quick Lock0 ETH0.0000474
0xbcda81f718885b68a1d98ac8e9f5b7aa3852cb99d19288bca355b072ecc50725Delegate Exit241489222022-09-11 21:28:18137 days 23 hrs ago0xd1479a710f0d17eaed467b3adb780ce40b388a9dOUT Radiant: Multi Fee Distribution0 ETH0.0000172
0xfa0aba68384e8aeb5adf7271b04e7e45f3791a70a1992f3bac5c2948a8aee535Approve241489042022-09-11 21:28:00137 days 23 hrs ago0xd1479a710f0d17eaed467b3adb780ce40b388a9dOUT Radiant: RDNT Token0 ETH0.00002029
0xeefd1a0ea22e058c00b1efbdf9392ce8ecb29be790c41c97a04ed8d8ee1769e2Stake241488522022-09-11 21:27:02137 days 23 hrs ago0xd1479a710f0d17eaed467b3adb780ce40b388a9dOUT Radiant: Multi Fee Distribution0 ETH0.00005925
0x0f7d4f9c535d5153309fbb2505ba0e10381af91ddff80c96a608423e53589f3fGet Reward241486532022-09-11 21:24:35137 days 23 hrs ago0xd1479a710f0d17eaed467b3adb780ce40b388a9dOUT Radiant: Multi Fee Distribution0 ETH0.00013633
0x23362b245c7a2eae579f40905cb460332163e9f5440fca89dadabf82638a84cbClaim241482362022-09-11 21:18:48137 days 23 hrs ago0xd1479a710f0d17eaed467b3adb780ce40b388a9dOUT Radiant: MasterChef0 ETH0.00005904
0x95c68c8a8702590a7a80e2bd0a84101300cde7c965ac51c4fb2788efcf31d1abStake200366132022-08-11 21:11:08169 days 3 mins ago0xd1479a710f0d17eaed467b3adb780ce40b388a9dOUT Radiant: Multi Fee Distribution0 ETH0.000257770724 ETH
0x9303510987e4a5fa5e45660a1b64cc301407c4bb101c4ea3f4246f160b975616Approve200365742022-08-11 21:09:44169 days 5 mins ago0xd1479a710f0d17eaed467b3adb780ce40b388a9dOUT Radiant: RDNT Token0 ETH0.000151359162 ETH
0x18657090a1ee3dee9549bacbf3e8d0308a3bb36c2181dd9cfdcc47da44e1b333Claim200364942022-08-11 21:07:15169 days 7 mins ago0xd1479a710f0d17eaed467b3adb780ce40b388a9dOUT Radiant: MasterChef0 ETH0.000293966803 ETH
0xda401d02b40f10b0562b58d0503a3a91e052afd9e8507327e54881d0e25c3fb2Swap Exact Token...200362782022-08-11 21:00:45169 days 14 mins ago0xd1479a710f0d17eaed467b3adb780ce40b388a9dOUT SushiSwap: Router0 ETH0.000189951873 ETH
0x9d00174ea1d16918e9ab4a2bbf847b60a83ae4855cdf79f51641ed6ad2bb6039Withdraw ETH184769552022-07-24 22:39:05186 days 22 hrs ago0xd1479a710f0d17eaed467b3adb780ce40b388a9dOUTRadiant: WETH Gateway0 ETH0.000062260251 ETH
0x1880a33d01a15c976fb7b49103e178b8b5dbb4bcd057d8c409541bdf2df085f0Deposit184763052022-07-24 22:26:41186 days 22 hrs ago0xd1479a710f0d17eaed467b3adb780ce40b388a9dOUT Radiant: MasterChef0 ETH0.000062712863 ETH
0x0096a47ca88f909f7186a93d0785fd5ab39e39da51d16671c31183dc6c4ead4fApprove184762952022-07-24 22:25:34186 days 22 hrs ago0xd1479a710f0d17eaed467b3adb780ce40b388a9dOUT 0x24704aff49645d32655a76df6d407e02d146dafc0 ETH0.000060709019 ETH
0xb7f143af06dcae616a87c2553eeba627f31fb3e34f169695874ad6afdd227cd6Add Liquidity184762582022-07-24 22:25:34186 days 22 hrs ago0xd1479a710f0d17eaed467b3adb780ce40b388a9dOUT SushiSwap: Router0 ETH0.000082795492 ETH
0x7376808ce0595733db34544d525add03a9c00f8e5f7f2211fffaa121f5695c92Approve184762252022-07-24 22:24:58186 days 22 hrs ago0xd1479a710f0d17eaed467b3adb780ce40b388a9dOUT Radiant: RDNT Token0 ETH0.000060852897 ETH
0x436d2f3eaf16a5288e44092c2cf07468b5ab79fb4fb458353a029d85ead5a389Approve184762082022-07-24 22:24:58186 days 22 hrs ago0xd1479a710f0d17eaed467b3adb780ce40b388a9dOUT 0x82af49447d8a07e3bd95bd0d56f35241523fbab10 ETH0.000060768445 ETH
0x8ea68c1a88c150b1a65a3691f6b163383638d8caeda9dbc349aa8f645eb6ac35Deposit184761572022-07-24 22:24:06186 days 22 hrs ago0xd1479a710f0d17eaed467b3adb780ce40b388a9dOUT 0x82af49447d8a07e3bd95bd0d56f35241523fbab10.1 ETH0.000050352101 ETH
0x1fdfcd1ebef3bf1ea1bdae877551ebda4d0eb5fd963fb098e023f7beda2a93c2Withdraw ETH184761312022-07-24 22:23:37186 days 22 hrs ago0xd1479a710f0d17eaed467b3adb780ce40b388a9dOUTRadiant: WETH Gateway0 ETH0.000068176467 ETH
0x9c452eac7cb9ba77fff332c590600e2c004e2453343c0c79ad6713e4eb5df507Approve184761092022-07-24 22:22:13186 days 22 hrs ago0xd1479a710f0d17eaed467b3adb780ce40b388a9dOUT 0x15b53d277af860f51c3e6843f8075007026bbb3a0 ETH0.000060763652 ETH
0xee6364d524bf1f83d7f4803b3f620136a9a2b2f71c48c7d879b41350e1b5d738Deposit ETH184733112022-07-24 21:40:49186 days 23 hrs ago0xd1479a710f0d17eaed467b3adb780ce40b388a9dOUTRadiant: WETH Gateway0.1 ETH0.000081157152 ETH
0x075629e014b9e8b993b6ad1d93ebb412b297d43f710db019e040bacc646cf1e2Swap Exact ETH F...184731512022-07-24 21:37:21186 days 23 hrs ago0xd1479a710f0d17eaed467b3adb780ce40b388a9dOUT SushiSwap: Router0.64 ETH0.000078858516 ETH
0xc5562b3255ea1792e4ce3f6ba6d3f35b4fdd38945128917d3aced0df43712590Swap Exact ETH F...184730522022-07-24 21:36:40186 days 23 hrs ago0xd1479a710f0d17eaed467b3adb780ce40b388a9dOUT SushiSwap: Router0.531330801013047 ETH0.000068542857 ETH
0xf6995efebb73720ca575584d137293fc73725e53b8bd0cbdf8b1f53f19a09079Multicall184675202022-07-24 19:33:41187 days 1 hr ago0xd1479a710f0d17eaed467b3adb780ce40b388a9dOUT Uniswap V3: Router 20 ETH0.000134730207 ETH
0x14a8281e81d703d3b9f280d03ce0386a5a7e495a7ff67162231dfefbb7401723Approve184674332022-07-24 19:31:59187 days 1 hr ago0xd1479a710f0d17eaed467b3adb780ce40b388a9dOUT 0xff970a61a04b1ca14834a43f5de4533ebddb5cc80 ETH0.000065497866 ETH
0x3a098b23c10e38e492dba5c31c07e8afaf9aaa9486a342399e8ec978e0ed6b49Create Retryable...184671442022-07-24 19:26:32187 days 1 hr ago0xd1479a710f0d17eaed467b3adb780ce40b388a9dOUT Arbitrum: ArbRetryableTx0.1 ETH0.000000015102 ETH
[ Download CSV Export 
Latest 5 internal transactions
Parent Txn Hash Block From To Value
0xda401d02b40f10b0562b58d0503a3a91e052afd9e8507327e54881d0e25c3fb2200362782022-08-11 21:00:45169 days 14 mins ago SushiSwap: Router0xd1479a710f0d17eaed467b3adb780ce40b388a9d0.444489246584792012 ETH
0x9d00174ea1d16918e9ab4a2bbf847b60a83ae4855cdf79f51641ed6ad2bb6039184769552022-07-24 22:39:05186 days 22 hrs ago Radiant: WETH Gateway0xd1479a710f0d17eaed467b3adb780ce40b388a9d0.000000000433526321 ETH
0x1fdfcd1ebef3bf1ea1bdae877551ebda4d0eb5fd963fb098e023f7beda2a93c2184761312022-07-24 22:23:37186 days 22 hrs ago Radiant: WETH Gateway0xd1479a710f0d17eaed467b3adb780ce40b388a9d0.099990017796284748 ETH
0xf6995efebb73720ca575584d137293fc73725e53b8bd0cbdf8b1f53f19a09079184675202022-07-24 19:33:41187 days 1 hr ago Uniswap V3: Router 20xd1479a710f0d17eaed467b3adb780ce40b388a9d0.691401651074976016 ETH
0xa1cfd3a4dc9d8d06530f129074bea51b10038dd8c3c4330f3665ad7fcb9e4cc9184672632022-07-24 19:28:01187 days 1 hr ago 0xfe7c30860d01e28371d40434806f4a8fcdd3a0980xd1479a710f0d17eaed467b3adb780ce40b388a9d0.0001293931146144 ETH
[ Download CSV Export 
Latest 1 Deposit
[ Download CSV Export 
Loading

Contract Name:
0 ETH

Compiler Version
0

Optimization Enabled:
0 ETH

Other Settings:
-NA-
Block Transaction Gas Used Reward
Age Block Fee Address BC Fee Address Voting Power Jailed Incoming
Block Uncle Number Difficulty Gas Used Reward
Loading
Make sure to use the "Vote Down" button for any spammy posts, and the "Vote Up" for interesting conversations.